Powrót do katalogu

CZ-6A DEB

AktywnyPO
NORAD 61100·DEBRIS·🇨🇳 China

Wystrzelony Aug 6, 2024 z Taiyuan Satellite Launch Center

Loading…

Następne Przeloty (najbliższe 24 godziny)

TLE

ŚwieżeSource: Space-Track

Epoka: Sep 14, 2026, 11:02 UTC

1 61100U 24140NS  26257.46015495  .00001523  00000-0  31421-3 0  9990
2 61100  89.0311 262.9684 0109553 317.5928  41.6852 14.56229321108603

Śledź CZ-6A DEB w czasie rzeczywistym z AllMySat

Download on the App Store